[[{"header":{"parameterUnit":"m.s-1","parameterCategory":1,"la1":30.2991,"la2":30.254,"lo1":-89.0895,"lo2":-89.0444,"dy":0.0017,"dx":0.0017,"nx":28,"ny":28,"refTime":"2025-05-28T03:00:00:Z","depth":0,"parameterNumber":2,"parameterNumberName":"U-component_of_WINDS"},"data":[0,0,0,0,0,0,0,0,0,0,0,0,0,0,0,0,0,0,0,0,0,0,0,0,0,0,0,0,0,0,0,0,0,0,0,0,0,0,0,0,0,0,0,0,0,0,0,0,0,0,0,0,0,0,0,0,0,0,2.8979,2.8978,0,2.8887,2.8886,2.8885,2.8768,2.8766,2.8764,2.8762,2.8669,2.8668,2.8667,0,0,0,0,0,0,0,0,0,0,0,0,0,2.9057,2.9056,2.8979,2.8978,2.8977,2.8887,2.8886,2.8885,2.8768,2.8766,2.8763,2.8761,2.8669,2.8668,2.8667,0,0,0,0,0,0,0,0,0,0,0,0,0,2.9,2.9056,2.8979,2.8908,2.89,2.8887,2.8886,2.8884,2.8768,2.8766,2.8763,2.876,2.8669,2.8668,2.8667,2.8717,0,0,2.8664,2.8663,0,0,0,0,0,0,0,0,2.9004,2.8997,2.8919,2.8913,2.8904,2.8836,2.8879,2.8828,2.8769,2.8819,2.8762,2.8759,2.8727,2.8721,2.871,2.8713,2.8709,2.8664,2.8663,2.8663,2.8662,0,0,0,0,0,0,0,2.9008,2.9001,2.8942,2.8918,2.8909,2.8881,2.887,2.8869,2.879,2.8814,2.8805,2.8796,2.8722,2.8711,2.8707,2.8707,2.8664,2.8663,2.8662,2.8662,2.8751,2.8753,0,0,0,0,0,0,2.9022,2.9005,2.8945,2.894,2.8948,2.8882,2.887,2.8861,2.8789,2.8776,2.8799,2.8791,2.8714,2.8708,2.8703,2.8758,2.8663,2.8662,2.8661,2.8748,2.8751,2.8754,0,0,0,0,0,0,2.9024,2.9018,2.8949,2.897,2.8959,2.8884,2.8875,2.886,2.8849,2.8778,2.8763,2.8802,2.8712,2.8705,2.8715,2.8753,2.8661,2.866,2.8744,2.8749,2.8753,2.8868,0,0,0,0,0,0,2.9027,2.9019,2.9036,2.8971,2.8958,2.8962,2.8877,2.8861,2.8847,2.8837,2.8777,2.8764,2.8709,2.8718,2.8714,2.875,2.8659,2.874,2.8746,2.8751,2.8861,2.8876,2.889,0,0,0,0,0,2.903,2.9072,2.9038,2.9031,2.8978,2.8964,2.8957,2.8893,2.8851,2.8868,2.8823,2.8766,2.875,2.872,2.8715,2.8751,2.8737,2.8744,2.8751,2.8854,2.8873,2.8889,0,0,0,0,0,0,2.9142,2.9062,2.9023,2.9045,2.9013,2.8945,2.8964,2.8914,2.8893,2.8884,2.8806,2.8793,2.8814,2.8784,2.8751,2.8798,2.8736,2.8742,2.8816,2.8833,2.8848,2.8854,2.8658,0,0,0,0,0,2.917,2.9165,2.9095,2.9121,2.9107,2.9039,2.903,2.8984,2.8948,2.8933,2.8888,2.8856,2.8844,2.8837,2.8822,2.8857,2.8843,2.888,2.8895,2.8907,2.8912,2.8932,2.8948,2.8777,2.8777,2.8777,0,0,2.9226,2.9181,2.9183,2.9143,2.9112,2.911,2.9028,2.9028,2.9026,2.8933,2.894,2.8908,2.8866,2.889,2.8899,2.8866,2.8957,2.8915,2.8926,2.8924,2.894,2.8957,2.8971,2.8781,2.8781,2.878,0,0,2.9327,2.9292,2.9311,2.9283,2.9239,2.9194,2.9199,2.914,2.9114,2.9121,2.9052,2.905,2.903,2.9004,2.8988,2.9086,2.9033,2.9083,2.9158,2.9177,2.9191,2.9202,2.9238,2.9252,2.909,2.909,2.909,0,2.9402,2.9395,2.9327,2.9333,2.9318,2.9236,2.9256,2.9232,2.9185,2.9178,2.9142,2.9118,2.9084,2.9102,2.9126,2.9116,2.9121,2.9088,2.9194,2.9205,2.9215,2.9248,2.9262,2.9096,2.9096,2.9095,2.9094,0,2.949,2.9487,2.9508,2.9466,2.9454,2.9467,2.9403,2.94,2.9356,2.9316,2.9326,2.9283,2.9259,2.9261,2.9217,2.9274,2.9255,2.9208,2.9144,2.9239,2.9269,2.9281,2.9105,2.9103,2.9101,2.91,0,0,2.9655,2.9579,2.9588,2.9569,2.9516,2.9513,2.9524,2.9501,2.95,2.9472,2.948,2.9468,2.9425,2.9408,2.9362,2.9379,2.9462,2.933,2.9328,2.9356,2.9523,2.9559,2.9574,2.9428,2.943,2.9431,2.9527,0,2.9746,2.9759,2.9701,2.973,2.9727,2.9652,2.9661,2.9631,2.9596,2.959,2.955,2.9543,2.9486,2.9476,2.949,2.9449,2.9494,2.9441,2.9435,2.9436,2.9447,2.959,2.9626,2.9718,2.9538,2.954,2.9541,0,2.9852,2.9832,2.9861,2.981,2.9807,2.9816,2.9793,2.9787,2.9753,2.9726,2.971,2.9657,2.9667,2.9608,2.962,2.9586,2.9581,2.9561,2.9563,2.9559,2.9493,2.9589,2.9745,2.976,2.9559,2.9558,2.9556,0,2.9971,2.995,2.9965,2.9952,2.9893,2.9902,2.9878,2.9841,2.9832,2.9812,2.9806,2.9788,2.9778,2.9766,2.9711,2.9673,2.9732,2.9667,2.971,2.9712,2.9724,2.9724,2.9881,2.9723,2.9722,2.9722,2.9722,0,3.0078,3.0099,3.0018,3.0027,3.005,2.9985,3.0009,2.9977,2.9946,2.9949,2.9884,2.9888,2.9816,2.9814,2.9772,2.979,2.9786,2.9765,2.9754,2.9771,2.9774,2.9765,2.9757,2.9726,2.9725,2.9724,2.9724,0,3.0212,3.0159,3.0171,3.0116,3.0102,3.0121,3.0074,3.0082,3.0044,3.0049,3.0047,2.9987,2.9981,2.9926,2.9908,2.988,2.9915,2.9891,2.9926,2.9918,2.9965,2.9961,3.0121,3.014,2.997,2.9972,2.9973,0,3.0283,3.0298,3.0245,3.0243,3.0222,3.0219,3.0211,3.0149,3.0143,3.0108,3.012,3.0109,3.0096,3.0092,3.0047,3.0034,3.001,3.0067,3.0007,3.0025,3.0011,3.001,3.0012,3.0079,3.0081,3.0083,3.0084,0,3.0416,3.039,3.038,3.0362,3.0354,3.0337,3.0316,3.0318,3.025,3.0248,3.0241,3.0232,3.0215,3.0206,3.0186,3.0162,3.0113,3.0105,3.0114,3.013,3.015,3.0141,2.996,3.01,3.0099,3.0098,3.0097,3.0096,3.052,3.0531,3.0496,3.0489,3.0467,3.045,3.0455,3.0419,3.0412,3.0393,3.0358,3.0358,3.0327,3.0295,3.0277,3.0277,3.0247,3.026,3.0264,3.0268,3.0277,3.0152,3.0273,3.0272,3.0272,3.0271,3.0271,0,3.0649,3.0625,3.0618,3.0592,3.0587,3.0542,3.0518,3.0517,3.0517,3.0493,3.0483,3.0478,3.047,3.0427,3.0415,3.0423,3.0401,3.0422,3.042,3.0416,3.0304,3.0297,3.0441,3.0441,3.0441,3.0441,3.0441,3.0441,3.0716,3.0732,3.0703,3.071,3.0684,3.0684,3.0674,3.0659,3.0639,3.0636,3.063,3.0602,3.0571,3.0557,3.0548,3.0536,3.0535,3.0564,3.0545,3.044,3.0424,3.0408,3.0401,3.0564,3.0564,3.0656,3.0657,3.0658]},{"header":{"parameterUnit":"m.s-1","parameterCategory":1,"la1":30.2991,"la2":30.254,"lo1":-89.0895,"lo2":-89.0444,"dy":0.0017,"dx":0.0017,"nx":28,"ny":28,"refTime":"2025-05-28T03:00:00:Z","depth":0,"parameterNumber":3,"parameterNumberName":"V-component_of_WINDS"},"data":[0,0,0,0,0,0,0,0,0,0,0,0,0,0,0,0,0,0,0,0,0,0,0,0,0,0,0,0,0,0,0,0,0,0,0,0,0,0,0,0,0,0,0,0,0,0,0,0,0,0,0,0,0,0,0,0,0,0,0.5456,0.5454,0,0.5274,0.5272,0.527,0.5136,0.5135,0.5134,0.5133,0.4939,0.4935,0.4931,0,0,0,0,0,0,0,0,0,0,0,0,0,0.5681,0.5678,0.5456,0.5454,0.5451,0.5275,0.5272,0.5269,0.5136,0.5135,0.5133,0.5132,0.494,0.4936,0.4931,0,0,0,0,0,0,0,0,0,0,0,0,0,0.555,0.5676,0.5456,0.5364,0.5354,0.5275,0.5272,0.5269,0.5136,0.5135,0.5133,0.5131,0.4942,0.4936,0.493,0.4927,0,0,0.4911,0.4909,0,0,0,0,0,0,0,0,0.5557,0.5541,0.538,0.537,0.5358,0.5226,0.528,0.5154,0.5137,0.5219,0.5133,0.5131,0.5035,0.5022,0.4991,0.4917,0.4909,0.4911,0.4907,0.4904,0.4903,0,0,0,0,0,0,0,0.5567,0.5548,0.5384,0.5377,0.5364,0.5329,0.5309,0.5256,0.5139,0.5211,0.5201,0.5182,0.5029,0.4997,0.4985,0.4906,0.4911,0.4905,0.4902,0.4899,0.4822,0.4823,0,0,0,0,0,0,0.5591,0.5557,0.5389,0.5378,0.5456,0.5327,0.5304,0.527,0.5139,0.5117,0.5184,0.5176,0.5009,0.4993,0.4978,0.4966,0.4904,0.4899,0.4895,0.482,0.4822,0.4824,0,0,0,0,0,0,0.5596,0.5577,0.5397,0.5465,0.5439,0.5325,0.5288,0.5268,0.5235,0.5118,0.5096,0.5173,0.5007,0.4987,0.4941,0.4957,0.4896,0.489,0.4818,0.4821,0.4823,0.4942,0,0,0,0,0,0,0.5603,0.558,0.5579,0.5466,0.5436,0.5365,0.5289,0.5265,0.5226,0.5215,0.5102,0.5081,0.5004,0.4951,0.4935,0.4948,0.4886,0.4816,0.4819,0.4822,0.4936,0.4948,0.4958,0,0,0,0,0,0.5612,0.5618,0.558,0.556,0.5433,0.5366,0.5349,0.5261,0.5228,0.5225,0.515,0.5085,0.4959,0.4948,0.4928,0.494,0.4815,0.4818,0.4822,0.4931,0.4946,0.4958,0,0,0,0,0,0,0.5732,0.5601,0.5557,0.5527,0.5459,0.5344,0.5337,0.528,0.5217,0.5209,0.5101,0.5077,0.5043,0.4986,0.4976,0.493,0.4878,0.4879,0.4968,0.4981,0.4992,0.5006,0.488,0,0,0,0,0,0.5756,0.5715,0.5602,0.5586,0.5554,0.5453,0.542,0.5359,0.5283,0.5253,0.5174,0.5101,0.5045,0.501,0.4951,0.4928,0.4901,0.4926,0.4937,0.4947,0.4948,0.4932,0.4942,0.4836,0.4836,0.4836,0,0,0.5802,0.5726,0.5706,0.5608,0.5548,0.5507,0.5429,0.5387,0.5355,0.5245,0.5198,0.5139,0.505,0.5016,0.4997,0.4968,0.4972,0.4952,0.496,0.4955,0.4937,0.4947,0.4956,0.4838,0.4838,0.4837,0,0,0.5867,0.5805,0.5786,0.5729,0.5641,0.5573,0.5569,0.5463,0.542,0.5372,0.5289,0.5248,0.5153,0.5094,0.5051,0.5097,0.5035,0.5081,0.5139,0.5125,0.5133,0.514,0.5156,0.5164,0.5082,0.5083,0.5083,0,0.5935,0.5872,0.5782,0.5747,0.5706,0.5609,0.5588,0.5536,0.5432,0.5406,0.5375,0.5256,0.5189,0.514,0.5152,0.5121,0.5112,0.5093,0.514,0.5146,0.5151,0.5165,0.5172,0.5089,0.5088,0.5087,0.5087,0,0.596,0.5918,0.5912,0.5819,0.5777,0.5749,0.5655,0.5623,0.5567,0.5502,0.5455,0.5372,0.5296,0.528,0.5222,0.5223,0.5208,0.5161,0.5106,0.5169,0.518,0.5185,0.5098,0.5095,0.5094,0.5092,0,0,0.6092,0.5953,0.5952,0.5909,0.5806,0.577,0.5738,0.5667,0.5642,0.5575,0.5544,0.5468,0.5424,0.5376,0.5312,0.53,0.5342,0.5253,0.5249,0.5273,0.5338,0.5374,0.5382,0.5301,0.5302,0.5302,0.5345,0,0.614,0.6079,0.6,0.5965,0.5925,0.5833,0.5805,0.5738,0.5678,0.5633,0.5565,0.5513,0.5459,0.543,0.5414,0.534,0.5353,0.5336,0.527,0.5269,0.5295,0.5388,0.5425,0.547,0.5349,0.535,0.535,0,0.6186,0.6128,0.6091,0.5994,0.5974,0.5951,0.588,0.5839,0.5762,0.5718,0.5667,0.5599,0.5559,0.5512,0.5455,0.5446,0.5414,0.5374,0.5374,0.5363,0.5313,0.538,0.5482,0.5489,0.5357,0.5356,0.5356,0,0.6286,0.6198,0.6165,0.6131,0.6017,0.6003,0.5954,0.5875,0.5838,0.5776,0.5751,0.5684,0.5647,0.5596,0.5511,0.5485,0.5464,0.5409,0.5425,0.5428,0.5424,0.5425,0.5522,0.5405,0.5405,0.5405,0.5405,0,0.6347,0.6328,0.6209,0.6188,0.6164,0.6072,0.605,0.5993,0.5924,0.589,0.5806,0.5775,0.5665,0.5621,0.5554,0.5518,0.5501,0.5464,0.5447,0.5472,0.5477,0.5449,0.5443,0.5406,0.5406,0.5406,0.5406,0,0.6453,0.6373,0.6331,0.6228,0.6202,0.6189,0.61,0.6076,0.6013,0.597,0.5955,0.5854,0.5798,0.5709,0.5625,0.5581,0.5556,0.5527,0.5583,0.5572,0.5594,0.5593,0.5676,0.5682,0.5563,0.5564,0.5565,0,0.6497,0.6481,0.6378,0.6351,0.6307,0.6263,0.6227,0.6136,0.6101,0.6014,0.6,0.5939,0.5884,0.5799,0.5717,0.5653,0.5621,0.5655,0.5611,0.5637,0.5622,0.5624,0.5622,0.5665,0.5667,0.5668,0.5669,0,0.6583,0.6545,0.6497,0.6436,0.6396,0.6342,0.6284,0.6266,0.6162,0.6127,0.6071,0.603,0.5947,0.5887,0.5813,0.576,0.5697,0.5685,0.5685,0.571,0.5743,0.5726,0.5611,0.5682,0.5681,0.568,0.5679,0.5679,0.6658,0.664,0.6567,0.6516,0.6465,0.6414,0.6387,0.6322,0.6275,0.6203,0.6152,0.61,0.6023,0.5918,0.5869,0.5826,0.5798,0.5798,0.5798,0.58,0.5809,0.5752,0.5812,0.5811,0.5811,0.581,0.581,0,0.6739,0.6689,0.6644,0.6568,0.6529,0.6478,0.6412,0.6382,0.6338,0.6274,0.6224,0.6161,0.6103,0.6018,0.5953,0.5935,0.5905,0.5921,0.5921,0.591,0.5838,0.5844,0.5947,0.5947,0.5947,0.5947,0.5947,0.5947,0.6777,0.6745,0.6699,0.6641,0.6589,0.654,0.6507,0.6459,0.6408,0.6342,0.6296,0.6242,0.617,0.61,0.6044,0.6021,0.6001,0.6026,0.5994,0.5927,0.5915,0.5903,0.5908,0.6023,0.6023,0.6069,0.607,0.607]}]]